Find Starlink 1302

NORAD ID: 45375 Int'l Des: 2020-019 Owner: SPXS Country: US Constellation: starlink operational
LEOCIRCULAR

当前视图

正在加载3D地球...

About Starlink 1302

Starlink 1302 (NORAD 45375) is a starlink constellation satellite (v1.0) launched Mar 18, 2020 by SPXS of US. It operates in LEO, CIRCULAR orbit with a mass of 260.00 kg.

即将过境

Passes for default location (London). Set your location on the main map for personalized predictions.

高度历史

Loading altitude history...

两行轨道根数

1 45375U 20019R 26263.54517338 .00073171 00000-0 39779-3 0 9998
2 45375 53.0389 271.7338 0006955 49.3178 310.8445 15.79317773360501
Epoch: Sep 20, 2026 • Age: 16 hours

当前状态

高度 335.3 km
远地点 / 近地点 N/A
速度 7.71 km/s
星下点 3.28°N, 10.68°E
发射日期 Mar 18, 2020
运行时间 6.5 years
类型 internet

技术详情

分类 Payload
质量 260.00 kg
干质量 248.00 kg
长度 0.20 m
跨度 9.00 m
形状 ? Box + pan
制造商 SPXS
平台类型 Starlink
阶段状态 In Orbit
所有者/国家 SPXS/US

Most Searched